Wind_Speed
18 18 18 18 18 18 19 20 19 18 19 19 19 20 20 19 18 18 17 16 15 15 16 16 17 18 18 19 19 17 17 17 15 14 20 19 15 17 18 17 18 20 19 15 15 16 14 14 17 17 17 18 18 19 19 20 20 15 9 9 10 10 12 11 13 12 11 10 5 6 5 4 4 6 8 7 11 12 12 17 3 5 10 22 25 32 35 33
19 18 18 18 18 18 18 19 19 18 18 18 19 19 19 20 19 18 17 15 15 16 16 17 18 18 18 19 18 16 16 17 19 23 23 18 16 19 22 23 22 20 17 17 17 16 16 16 17 18 19 18 18 19 18 19 21 14 7 9 11 11 13 15 16 15 17 15 8 9 3 2 4 6 6 6 9 10 11 15 8 19 19 29 31 34 34 35
19 19 19 19 19 18 18 18 19 19 18 17 18 19 19 19 19 19 18 16 15 16 17 18 18 19 18 18 16 14 15 20 24 25 20 16 19 20 21 23 23 21 19 19 18 15 16 17 17 19 20 18 18 20 18 18 19 16 12 9 11 13 15 18 20 22 22 15 5 4 6 4 7 7 7 4 7 9 10 11 12 24 25 31 32 32 33 34
20 20 19 19 19 19 19 19 19 19 19 18 18 18 19 19 19 19 19 17 16 16 16 17 18 19 18 17 15 12 16 21 19 14 12 13 16 18 20 21 21 21 21 21 19 17 17 18 18 20 20 17 19 21 18 19 17 14 15 10 12 15 15 21 23 24 19 10 9 5 3 6 7 7 9 9 9 9 10 15 14 27 29 30 31 30 31 31
20 21 20 19 19 19 19 19 19 19 19 19 19 18 19 19 20 19 19 18 17 17 16 17 18 19 18 16 12 10 13 12 3 6 6 7 10 14 17 20 20 20 21 22 21 18 16 18 20 22 20 15 17 18 17 24 20 12 15 16 18 18 14 21 25 20 13 9 10 12 5 3 7 10 10 10 10 9 10 15 18 33 34 32 32 30 29 29
19 20 20 20 20 20 19 19 19 19 19 19 19 19 18 18 19 20 19 18 18 18 17 17 18 19 18 16 11 9 10 5 4 3 6 5 6 10 14 17 19 20 22 22 20 18 17 18 19 21 19 14 16 16 17 26 23 11 14 19 23 23 18 20 19 11 9 12 10 11 11 6 11 11 8 11 12 15 14 11 13 37 37 33 34 31 30 30
18 18 19 19 19 20 19 19 19 19 19 18 18 19 18 18 18 19 19 19 18 17 18 19 19 18 18 17 13 11 17 17 7 8 14 14 13 9 8 12 15 20 23 21 19 20 19 19 20 20 16 13 16 18 19 24 24 16 13 16 21 24 25 25 19 8 7 12 11 12 13 12 15 11 9 13 14 18 15 10 9 35 36 33 34 31 31 31
19 18 18 19 19 19 19 19 19 19 19 19 18 18 18 18 18 18 18 18 19 18 18 19 19 17 17 16 13 12 19 23 17 14 17 17 15 8 3 5 9 16 21 21 21 21 21 21 22 20 14 13 16 18 20 20 20 18 15 16 18 22 26 28 23 13 7 9 13 15 15 14 15 11 12 15 15 17 6 9 17 27 27 29 31 30 30 30
20 19 19 19 19 19 19 18 19 19 19 19 19 19 19 19 19 18 18 18 19 18 17 18 19 17 14 13 14 14 17 17 12 10 12 10 9 6 4 4 8 15 19 21 22 22 22 22 23 22 14 15 17 18 21 18 13 17 19 19 18 21 23 23 24 21 13 11 14 14 15 15 16 13 14 18 17 14 10 24 23 20 18 21 25 27 29 29
21 20 20 20 20 20 19 19 19 18 18 18 18 19 19 19 19 19 18 18 18 18 17 16 18 16 13 13 14 13 12 9 5 5 6 5 5 6 6 6 8 15 18 21 23 24 25 22 22 23 18 17 17 18 21 17 14 17 21 21 21 22 22 21 22 23 18 15 15 14 14 16 18 15 12 17 18 17 12 25 24 20 18 16 19 22 24 24
21 21 21 21 21 21 20 19 19 18 18 18 18 19 19 19 19 19 18 18 17 17 17 16 17 16 14 16 18 16 11 6 4 4 5 6 8 8 9 8 7 12 16 21 24 25 25 22 20 20 17 15 16 18 20 21 19 19 20 20 22 23 23 22 18 17 16 13 17 17 15 15 18 15 14 18 17 22 18 20 23 21 19 17 17 16 16 15
22 22 22 21 20 21 21 20 19 19 18 18 18 18 18 19 19 18 18 18 17 16 17 17 16 15 15 21 26 25 22 18 14 13 12 11 12 12 12 11 10 12 13 17 22 24 25 24 23 21 17 15 15 14 16 23 23 20 20 15 15 18 20 23 19 16 14 12 18 18 14 15 16 16 19 22 19 23 22 18 17 18 15 12 12 13 15 13
21 22 22 22 21 20 20 20 20 19 19 19 19 19 19 19 19 19 18 17 17 16 16 16 16 16 17 24 28 27 28 29 26 23 20 17 16 15 15 14 13 13 14 15 18 21 24 24 24 24 21 18 15 12 10 17 21 18 17 12 10 12 14 21 21 18 17 15 19 16 10 12 14 18 22 22 18 15 8 14 14 10 13 14 12 10 13 14
21 22 22 22 22 21 20 20 20 19 19 19 19 20 19 18 18 19 19 18 17 16 15 15 16 17 19 26 29 29 26 26 28 27 24 20 18 18 16 16 16 15 15 16 16 17 22 24 24 23 23 21 17 16 12 10 13 14 14 11 9 9 10 17 19 17 16 15 20 17 9 10 13 17 22 23 17 9 20 28 25 20 19 17 12 9 8 9
21 21 22 22 22 22 21 20 20 20 20 20 20 21 20 19 18 18 18 18 17 15 15 15 16 16 19 27 29 25 19 21 28 29 27 22 20 19 17 17 18 16 16 17 17 14 17 23 24 21 20 22 20 15 12 9 9 10 11 10 10 9 9 15 19 19 17 14 20 18 8 10 10 1 1 2 10 21 26 25 20 12 8 7 11 12 9 8
22 22 21 22 22 22 22 21 20 20 20 20 21 21 21 20 18 18 18 18 17 15 15 15 16 16 15 19 20 16 16 22 25 23 26 25 22 20 17 17 18 17 16 17 17 14 14 20 24 22 18 18 16 11 10 10 10 10 11 10 11 12 10 11 16 21 21 15 18 18 10 9 5 11 19 19 22 25 22 21 23 18 14 14 16 16 15 12
23 22 21 21 21 21 22 22 21 21 20 21 22 22 21 21 20 19 18 18 17 15 17 16 14 14 18 21 19 18 19 22 19 17 22 25 25 23 17 17 19 18 17 16 18 17 15 18 19 18 16 13 11 11 11 10 11 10 10 10 12 14 12 11 13 19 24 18 16 18 14 10 5 15 17 19 21 22 18 17 22 25 25 24 22 18 18 18
23 23 22 22 21 21 22 22 21 21 22 23 24 23 21 20 18 19 19 17 15 15 18 18 12 8 14 21 21 21 20 14 13 14 16 20 24 24 20 19 18 18 18 16 19 21 18 18 16 11 12 12 11 12 12 11 12 11 11 10 10 13 13 13 13 14 22 20 17 16 16 14 7 15 15 18 20 19 17 16 19 23 26 29 26 21 21 20
24 23 23 22 22 22 22 22 21 20 22 22 22 21 20 19 17 19 20 17 14 12 10 13 18 11 9 14 14 14 15 9 8 11 12 16 21 23 22 20 19 21 19 13 16 22 17 13 14 11 11 14 15 16 14 12 14 15 14 12 12 13 12 15 15 13 20 18 17 16 15 16 11 14 14 17 21 19 18 17 15 17 23 28 28 24 21 19
24 23 22 22 22 22 23 23 21 20 21 19 18 17 17 15 12 11 12 18 22 20 15 16 25 24 21 25 19 10 12 9 10 13 13 15 20 23 23 22 20 20 17 12 14 20 18 11 12 14 14 17 19 20 18 16 17 16 15 13 15 14 11 15 17 14 19 14 15 17 15 15 13 14 14 16 20 18 17 16 13 13 19 26 30 28 25 23
24 23 22 22 22 22 23 23 21 20 19 16 15 15 15 14 10 7 9 13 21 24 27 26 25 26 26 28 23 15 12 10 11 15 14 15 20 21 21 22 18 14 15 15 14 18 18 12 14 17 17 19 21 20 18 19 21 17 14 12 13 14 13 15 17 16 18 13 12 16 16 15 14 15 14 16 16 14 16 17 17 16 16 23 30 30 29 29
23 23 22 22 22 22 23 23 22 20 18 14 14 17 19 18 15 14 15 13 17 22 27 29 30 29 27 28 26 22 18 12 13 16 16 19 21 19 19 20 15 12 15 16 13 14 14 13 17 20 18 19 20 19 19 20 21 17 11 12 11 12 13 14 17 19 16 10 9 16 16 11 13 16 13 14 11 12 17 18 21 22 20 22 27 29 30 32
24 23 23 23 22 23 23 23 22 20 18 15 16 19 20 19 17 16 15 13 17 21 23 25 29 31 30 30 26 21 19 15 12 15 19 22 23 23 20 17 15 15 17 17 14 13 12 13 18 19 18 20 19 20 21 18 17 15 11 11 10 12 14 11 15 18 14 9 9 14 12 4 12 13 9 11 10 10 14 18 21 23 23 23 26 31 32 32
25 23 23 23 23 24 23 23 23 21 18 16 18 20 19 18 18 17 15 13 13 18 24 25 26 29 31 29 25 23 22 19 17 15 20 24 25 23 19 17 17 15 16 20 20 16 13 14 18 20 20 21 20 20 21 15 12 15 15 12 10 13 16 12 13 14 12 11 10 11 9 7 11 13 9 9 10 10 12 18 20 19 19 18 21 30 31 27
25 24 24 24 23 23 24 25 22 17 16 16 17 18 15 14 18 16 11 9 9 15 22 23 24 26 29 28 26 26 22 21 24 20 19 25 25 19 17 18 16 13 18 23 21 15 14 17 21 21 20 22 21 17 19 16 10 13 17 17 14 13 16 18 17 12 10 10 11 12 8 7 12 15 13 9 9 8 8 13 18 18 19 18 18 23 23 20
25 25 25 24 23 23 23 20 15 14 16 14 12 14 12 9 13 12 5 5 7 10 15 18 19 20 25 28 28 26 19 19 26 24 19 22 26 20 14 15 13 14 18 19 14 9 11 18 21 21 21 22 21 16 19 20 12 10 14 17 18 14 15 20 18 11 8 8 11 14 11 5 9 12 14 13 11 10 8 9 15 19 19 19 17 17 18 18
26 25 25 24 23 22 20 18 16 17 16 12 11 11 9 6 5 4 1 5 6 8 14 17 15 15 24 28 27 23 13 12 22 27 25 22 25 24 15 13 12 13 15 12 10 9 13 20 21 21 22 19 17 14 18 21 13 9 12 16 20 18 16 20 16 12 9 8 9 14 14 6 6 10 15 17 14 13 11 9 12 18 20 17 14 16 20 22
27 25 24 24 22 19 18 18 18 17 14 14 13 7 5 5 2 1 2 5 3 3 9 15 17 15 20 27 30 26 15 11 15 22 28 24 25 24 16 14 15 14 16 12 10 11 14 19 20 22 20 14 15 16 18 20 15 10 13 17 20 17 16 14 12 10 9 8 7 13 15 9 6 11 15 17 16 13 13 12 12 17 21 16 14 17 20 24
28 26 24 23 21 17 14 14 16 15 13 14 11 5 5 3 2 2 4 5 4 3 0 9 15 14 18 23 28 28 21 14 13 19 26 24 26 24 13 15 17 15 18 15 12 12 13 18 20 20 17 13 15 18 17 18 15 12 15 18 18 15 13 10 9 10 10 8 8 13 15 11 6 11 14 13 14 14 12 12 12 18 22 19 18 20 22 26
29 26 22 21 19 16 13 11 13 13 11 10 7 4 4 2 3 3 5 3 4 7 7 3 10 12 16 18 19 23 21 16 14 22 22 20 26 25 16 17 16 13 16 15 15 14 14 18 18 16 15 14 16 17 16 18 17 15 15 15 14 12 11 8 9 9 8 7 11 16 16 14 8 8 14 12 13 17 14 12 13 19 24 23 22 22 24 29
30 25 20 18 16 14 14 14 11 9 9 7 4 2 2 3 2 4 5 1 3 8 10 1 6 10 16 16 14 18 19 15 14 22 16 13 20 21 14 13 13 10 12 12 14 16 17 16 13 14 19 18 16 16 16 17 18 16 12 9 10 9 8 7 7 6 6 8 13 18 17 16 10 6 12 12 15 20 16 16 17 18 26 29 25 23 26 30
27 21 17 15 14 11 12 14 10 5 6 4 2 2 2 3 2 5 4 4 2 5 8 5 7 8 16 17 13 16 17 13 13 19 14 11 13 14 12 10 9 10 11 11 13 14 14 15 13 14 19 20 15 13 13 14 15 15 12 9 9 8 7 8 7 6 7 7 10 15 17 14 9 8 13 13 15 19 17 19 21 21 26 28 27 27 28 30
23 18 14 11 11 10 9 10 8 3 3 2 0 2 2 3 2 3 5 5 1 3 6 7 14 13 12 16 13 16 17 13 14 17 15 14 12 12 14 14 13 11 10 12 12 11 10 15 17 14 12 16 15 12 11 11 13 15 12 10 10 8 7 8 8 7 7 6 9 15 16 12 7 10 19 18 15 19 21 23 26 28 28 28 32 34 30 30
17 14 11 8 8 9 8 8 6 2 1 1 2 1 2 5 3 2 3 4 2 4 7 8 14 15 10 15 13 15 14 11 16 16 14 15 12 11 13 16 18 14 9 11 10 11 12 11 15 13 9 13 15 13 12 11 12 14 12 10 10 8 7 7 7 7 8 7 10 14 11 8 6 5 15 18 16 21 26 25 26 27 29 32 36 35 32 32
12 11 10 8 7 7 7 7 5 3 3 3 3 3 4 4 3 4 3 3 4 6 11 13 12 9 9 14 14 18 14 9 16 15 12 13 11 12 12 13 18 16 10 11 8 10 13 10 13 15 12 14 16 15 15 13 11 11 11 11 10 9 7 5 6 5 3 6 8 8 6 3 1 1 9 15 15 19 22 25 25 25 33 36 32 32 36 33
10 10 9 8 8 7 6 4 3 2 4 4 4 3 3 3 2 4 3 2 5 7 13 13 6 6 8 10 13 19 16 9 15 12 9 13 12 14 14 11 15 18 12 10 7 9 11 9 15 19 16 18 20 17 15 14 10 8 11 12 11 12 9 5 6 3 1 5 6 6 6 3 2 2 8 13 14 16 18 21 22 26 35 34 27 30 36 30
9 10 10 9 8 5 4 3 2 3 4 4 5 3 2 2 2 3 4 5 6 6 8 6 1 3 7 10 11 17 14 9 14 10 7 12 11 13 17 13 15 19 14 11 7 7 9 7 15 21 17 18 22 20 17 16 12 8 10 12 10 11 10 6 6 4 3 6 5 7 11 8 6 4 6 12 14 14 17 19 20 25 30 28 24 29 32 27
10 11 10 7 5 4 5 3 3 5 5 5 7 6 4 3 2 3 5 7 6 4 5 3 1 2 5 10 11 16 14 10 12 10 8 10 9 13 17 13 15 19 17 15 9 6 10 7 11 19 17 15 19 17 14 16 17 13 9 10 9 8 8 7 5 5 7 7 5 9 13 10 8 7 8 12 14 14 16 18 17 20 24 24 25 30 32 29
11 10 7 4 3 3 5 4 4 6 6 5 6 5 3 4 4 4 6 6 4 4 4 2 1 3 3 6 11 15 12 11 13 10 8 8 8 15 18 13 14 19 18 16 10 6 8 6 8 15 16 14 14 12 9 12 16 15 10 11 9 7 7 7 5 5 7 6 6 9 11 8 7 9 13 14 13 13 16 15 14 18 26 28 30 32 33 32
10 9 5 3 2 3 5 4 6 7 5 5 6 7 6 7 7 7 6 4 3 3 3 4 4 4 5 7 7 12 11 11 13 9 8 9 9 14 18 15 13 17 19 17 11 8 7 5 7 11 14 13 10 10 11 11 12 12 11 12 11 7 7 7 6 7 7 6 6 7 7 7 5 8 14 15 13 13 14 12 13 20 28 30 33 35 35 34
10 8 4 3 2 4 4 5 6 6 4 5 7 7 7 7 7 9 6 2 3 4 5 6 7 5 4 8 4 10 9 8 12 9 6 10 9 8 14 16 13 15 16 14 10 8 5 4 8 8 10 11 10 12 14 13 12 11 10 10 11 9 8 8 8 9 8 6 6 6 6 6 4 5 10 13 11 11 13 15 16 23 30 31 32 35 36 36
11 7 2 4 3 2 3 6 4 4 4 5 7 8 9 8 7 9 8 5 4 5 6 6 7 6 5 8 5 9 8 7 11 9 4 9 9 7 15 20 17 17 14 9 10 11 6 4 9 8 9 10 12 15 16 15 14 12 10 9 10 11 10 7 7 8 8 8 7 7 6 2 1 3 7 9 9 10 15 19 18 24 32 33 33 35 36 36
13 10 5 7 6 1 4 6 4 2 3 6 11 10 8 7 8 9 8 7 5 3 4 4 6 6 4 7 7 9 9 8 10 8 7 10 8 10 18 19 17 17 13 8 9 11 6 5 8 8 8 10 12 14 16 17 14 11 11 11 10 11 11 8 7 6 6 8 7 6 4 2 1 2 6 8 10 12 14 22 24 25 30 33 35 37 35 35
16 14 9 8 6 2 4 6 5 5 6 9 12 10 5 4 7 8 7 7 5 3 4 4 5 6 6 9 9 9 10 7 7 8 9 9 7 13 18 17 14 15 12 9 8 8 5 6 9 8 7 9 10 11 14 16 14 10 10 13 13 14 15 12 8 6 5 8 10 8 4 3 2 3 3 7 12 12 11 23 31 28 28 30 33 37 35 35
14 11 7 5 5 5 6 7 7 7 8 11 12 10 7 5 6 7 8 8 6 5 6 5 7 8 7 9 7 8 11 8 6 7 9 9 7 10 16 15 15 14 15 11 5 8 8 7 8 8 8 10 9 10 11 11 10 8 11 17 17 16 16 13 7 6 5 7 10 9 4 6 6 5 4 8 12 10 8 23 31 30 30 29 31 37 35 33
10 6 5 6 7 8 10 11 9 8 8 10 9 8 8 8 6 3 5 5 5 6 7 6 8 8 6 6 5 8 12 9 6 7 9 8 6 8 15 17 17 14 14 7 5 3 6 5 9 11 9 9 9 9 11 10 10 10 14 19 18 16 17 11 6 7 6 6 8 8 4 10 10 8 7 8 7 5 10 20 25 28 29 28 30 36 35 32
7 3 5 7 8 7 7 8 9 8 9 10 7 7 10 10 6 2 2 2 7 9 7 5 6 7 6 4 4 9 12 11 8 7 9 8 6 8 12 16 16 14 12 7 7 4 3 3 12 15 12 12 10 10 14 14 15 15 16 17 16 16 17 12 8 9 8 6 7 5 7 11 10 10 10 6 7 11 12 17 22 25 27 27 30 33 32 32
6 6 7 7 5 5 6 10 12 12 13 12 7 7 10 10 8 7 1 3 8 9 6 4 5 7 6 4 3 5 9 10 8 7 8 7 8 9 10 13 14 13 10 6 6 6 4 4 10 13 13 12 12 13 16 17 16 15 15 14 13 15 18 15 11 11 10 7 6 4 11 10 8 9 7 8 13 15 15 18 22 23 25 28 31 31 30 31
9 8 9 9 8 9 12 15 16 14 13 11 7 7 10 10 10 9 4 3 5 6 4 4 6 7 5 5 3 4 5 4 4 6 7 7 9 9 8 11 13 13 12 9 7 5 4 4 9 11 11 10 11 14 15 15 15 16 16 15 14 15 18 17 13 11 12 10 9 6 10 9 8 7 10 13 18 20 21 22 22 23 26 30 31 31 30 31
10 8 10 13 12 13 15 14 13 11 10 8 6 7 9 10 11 10 6 3 4 2 2 3 7 7 4 4 1 2 3 6 4 1 2 2 8 8 7 7 10 13 14 10 5 3 3 4 10 10 9 9 12 12 12 12 13 15 16 16 15 15 16 15 12 9 10 11 10 8 7 7 7 8 14 18 22 22 21 23 23 23 27 30 28 27 29 31
10 9 12 13 9 9 12 10 9 8 6 6 6 7 9 10 11 11 8 4 5 1 3 3 7 7 4 2 2 2 5 8 8 8 10 6 3 6 7 6 9 12 12 9 6 4 3 4 8 8 6 6 10 11 11 12 13 15 16 16 16 14 12 12 11 10 10 9 9 9 7 6 6 11 15 17 20 19 18 22 24 25 29 29 26 26 29 31
12 12 12 10 7 8 10 8 8 8 5 7 9 9 11 11 11 11 7 5 7 7 7 6 7 6 5 1 2 1 2 5 11 14 13 11 8 6 10 10 10 10 9 7 6 6 5 5 6 6 6 6 10 11 5 5 10 12 10 12 15 15 12 11 12 12 11 8 6 8 7 5 10 14 14 14 15 16 18 22 24 26 29 29 28 30 32 33
Wind_Direction
316 315 312 308 305 295 287 287 289 292 292 290 286 285 287 288 294 299 304 307 310 314 315 319 320 321 322 319 321 327 319 302 296 287 265 251 241 243 236 233 232 227 227 224 216 209 212 223 220 216 218 218 221 224 222 222 217 215 222 235 236 235 237 241 247 252 271 269 209 177 198 199 206 211 200 191 231 240 257 253 228 63 138 133 141 148 147 149
317 316 313 311 309 304 297 289 288 291 292 292 288 286 285 285 287 293 299 302 306 311 314 319 319 322 323 321 330 331 315 309 305 287 265 246 239 237 231 232 230 223 222 218 210 209 216 219 214 211 213 217 215 216 220 217 214 217 221 227 233 238 238 241 251 254 258 258 208 173 163 153 230 253 223 194 221 214 238 246 114 85 107 122 136 144 146 152
323 320 316 313 311 310 306 297 292 290 293 295 291 289 286 284 285 288 292 296 303 306 311 315 317 321 321 323 332 329 320 318 303 284 268 250 240 235 232 233 231 224 218 213 208 213 225 220 214 210 211 219 215 211 215 213 211 217 224 228 231 236 246 247 248 250 254 268 272 129 116 197 243 259 253 241 251 231 225 232 130 112 119 123 135 143 146 154
326 323 318 315 311 309 308 305 299 293 293 293 293 293 288 286 285 284 285 291 299 302 307 311 317 320 320 326 330 330 327 315 292 264 260 256 241 236 235 234 231 224 216 211 205 210 231 232 223 213 213 221 217 214 213 213 211 212 222 232 236 231 241 251 249 251 258 284 308 315 135 190 240 235 248 252 255 250 221 228 178 135 134 135 140 146 150 157
323 322 319 316 312 309 306 304 302 298 295 292 294 294 291 288 285 285 283 285 293 297 302 306 316 319 318 323 327 335 326 311 273 195 233 260 245 236 231 229 226 217 210 210 207 209 229 238 231 218 215 221 218 217 215 215 213 211 225 230 241 240 235 241 246 254 260 255 263 279 261 194 249 229 232 242 247 259 231 231 188 146 143 147 146 151 155 162
328 326 322 319 314 310 306 303 301 298 298 295 294 293 292 290 287 288 284 282 285 290 297 301 312 316 315 320 323 321 292 272 104 175 265 303 283 253 232 225 218 210 206 208 213 218 229 233 230 221 215 219 220 219 215 215 215 216 229 228 234 243 249 248 249 259 261 253 245 262 268 263 264 247 232 239 247 256 256 271 177 148 149 151 150 157 161 169
331 330 328 326 321 314 309 305 301 297 297 297 297 295 292 290 287 288 285 282 280 284 292 296 306 312 314 319 315 291 259 249 253 270 279 289 293 279 241 225 211 205 202 205 216 219 223 224 222 221 215 216 221 223 219 215 217 221 229 230 230 235 247 256 261 264 246 252 255 261 267 257 256 255 244 243 243 251 265 307 157 146 150 155 155 162 166 173
328 328 328 329 327 323 316 309 305 302 298 296 297 296 293 290 287 287 286 282 279 281 286 291 301 308 315 322 315 289 257 255 266 270 271 275 283 285 209 208 212 207 204 206 213 213 218 221 218 218 217 219 218 223 224 219 218 222 230 233 235 234 240 249 255 254 229 235 250 257 262 254 249 251 254 250 241 242 224 101 127 139 148 157 161 168 170 175
325 325 324 324 325 325 322 317 310 306 303 299 296 294 293 291 287 286 285 283 281 280 282 288 296 302 311 311 299 282 264 262 262 255 269 271 270 259 191 219 223 210 210 211 213 213 217 219 217 217 223 225 220 224 225 224 220 216 227 234 238 240 237 241 245 241 227 227 237 241 249 248 247 248 252 251 245 239 154 117 123 136 152 159 161 170 173 177
323 323 322 321 322 321 321 320 316 311 308 304 298 292 289 290 290 287 285 284 281 280 278 281 290 297 304 295 279 267 261 263 231 222 265 251 243 246 224 237 217 206 213 214 214 215 216 219 218 219 230 233 226 228 225 228 230 218 223 230 235 244 243 240 240 235 223 226 235 236 242 241 242 241 243 245 240 243 192 130 133 148 155 163 163 172 176 177
322 321 320 319 319 318 318 317 316 313 309 307 302 294 288 287 289 288 287 284 280 278 275 276 285 289 288 278 265 252 242 233 224 250 267 247 253 255 239 240 222 214 216 215 216 215 217 220 218 219 227 234 233 234 231 233 238 231 229 230 229 236 245 246 243 234 224 228 233 238 251 246 239 234 237 239 228 238 221 146 149 164 161 171 168 170 178 172
321 321 320 318 316 315 315 313 311 310 309 307 304 299 293 287 285 286 287 284 281 277 273 275 280 282 281 270 258 252 247 244 255 273 277 267 264 258 245 242 236 228 225 220 217 215 218 220 221 222 221 226 234 236 233 232 237 239 238 241 233 228 238 243 238 228 227 235 232 234 247 244 239 235 237 238 234 237 217 162 162 177 166 165 151 160 181 176
321 320 319 318 316 313 312 310 307 306 305 305 304 301 298 292 285 282 283 284 282 277 275 274 273 276 275 266 261 260 258 253 259 269 270 267 265 261 249 241 239 235 233 231 223 216 217 219 223 228 227 225 229 233 237 234 234 237 235 237 238 231 232 234 230 221 222 232 229 227 236 237 235 235 236 234 235 234 174 81 47 52 65 66 86 138 174 173
322 320 318 316 314 311 310 307 305 303 300 300 300 299 299 299 292 283 279 279 280 277 276 272 271 275 269 268 273 274 270 262 261 259 255 258 260 256 246 239 238 235 233 234 234 224 216 218 225 231 233 233 233 232 239 242 235 231 231 228 227 234 230 225 220 213 219 222 218 223 237 241 235 231 239 238 217 155 87 65 47 44 53 64 83 110 132 158
325 321 317 315 313 310 309 306 304 301 298 296 294 296 297 299 297 288 277 273 275 274 273 270 267 269 269 274 280 283 281 264 254 244 236 244 250 246 241 234 232 231 230 230 233 233 220 214 220 228 231 233 237 235 229 231 230 222 223 223 219 231 236 223 212 207 217 213 208 221 236 239 244 202 89 208 126 105 94 93 90 80 79 112 130 134 147 177
326 323 319 316 313 310 308 305 304 300 298 295 292 294 297 298 296 292 281 268 266 265 264 264 260 259 264 276 283 285 268 246 247 241 230 235 237 237 237 228 226 225 223 223 223 228 225 214 215 223 225 226 231 233 228 219 217 215 215 221 216 219 233 230 210 202 210 211 206 216 232 237 225 82 85 86 90 96 101 111 116 127 148 158 157 161 174 176
324 323 321 318 315 312 308 304 303 300 297 294 293 297 300 297 292 290 282 264 258 256 252 251 254 260 261 268 278 276 255 236 241 243 230 229 226 227 230 222 218 214 212 214 215 217 221 214 210 217 222 223 218 219 227 213 208 209 206 220 221 216 223 231 218 198 197 208 211 209 224 239 138 99 101 101 101 103 103 112 124 137 146 151 159 167 179 179
321 321 320 319 317 314 310 306 302 299 296 295 295 299 298 296 294 288 278 263 253 254 254 244 238 265 260 252 257 260 257 236 223 227 226 221 215 217 220 216 209 202 203 205 205 209 212 208 205 208 213 217 213 211 218 210 205 204 200 210 222 223 217 223 233 197 184 199 216 211 215 225 160 109 112 114 115 112 113 127 135 144 147 146 155 165 175 178
320 321 319 318 318 316 314 310 304 299 298 299 299 303 303 298 291 277 262 246 230 230 244 220 204 214 259 261 263 255 253 249 226 225 223 210 201 205 213 213 205 197 199 197 193 200 203 202 204 208 206 206 209 211 213 212 209 205 204 204 213 227 217 221 235 194 174 192 214 216 213 216 185 131 132 129 123 119 124 136 139 147 148 147 154 159 160 159
321 322 319 317 318 316 314 313 308 301 302 303 303 305 301 290 275 262 248 233 226 226 237 219 203 214 249 274 285 254 220 229 237 229 219 201 189 196 207 209 204 198 201 196 184 191 197 201 204 207 205 203 208 214 213 219 225 214 207 208 212 225 219 215 231 197 171 188 212 215 217 214 185 147 148 141 130 128 131 136 142 146 145 149 152 149 144 143
323 322 320 318 317 314 313 314 310 305 305 304 296 287 279 274 270 299 311 262 241 237 243 242 226 223 243 263 275 271 244 232 226 223 218 199 187 191 201 203 200 197 201 198 184 188 199 208 208 206 205 205 208 214 214 220 236 233 216 214 210 219 228 213 224 210 174 184 214 208 221 219 175 151 154 148 142 146 148 144 146 150 148 151 151 148 146 144
326 323 322 319 317 314 312 314 313 309 305 293 278 269 265 269 274 292 309 289 266 253 245 246 244 241 246 254 263 276 275 254 225 218 209 197 192 192 193 197 201 193 194 197 185 186 204 215 208 204 205 209 208 211 215 218 233 243 231 228 214 206 230 221 219 220 186 179 214 200 218 221 151 142 146 145 147 156 159 153 148 152 158 156 152 153 154 152
326 324 322 319 317 315 312 313 313 309 298 276 265 265 267 276 281 284 284 275 276 267 247 240 241 242 243 246 249 256 259 249 238 220 200 194 197 196 191 194 201 193 191 198 194 188 203 211 205 203 204 209 208 205 213 217 225 240 238 237 228 201 216 222 214 217 187 172 218 200 196 155 120 129 130 133 138 143 152 151 147 155 163 160 157 159 161 161
326 323 320 319 317 315 313 312 308 305 295 274 265 265 270 281 281 283 282 272 276 268 253 238 232 235 236 237 237 236 240 239 242 229 198 192 196 197 198 198 198 198 196 199 201 200 203 202 199 203 202 205 210 204 206 214 217 229 233 232 234 212 210 220 216 202 173 177 219 210 176 131 129 136 133 138 137 135 145 145 144 153 161 157 156 159 163 169
325 322 319 318 316 314 314 312 307 306 297 278 273 272 274 283 273 277 294 280 266 265 258 237 225 231 230 230 230 227 235 234 231 229 201 193 196 196 200 200 200 204 199 198 204 207 205 197 194 201 201 201 209 206 200 208 213 221 229 230 236 222 202 217 224 193 167 191 205 216 212 162 155 151 147 152 144 141 150 146 145 152 160 158 158 163 168 175
323 322 321 318 315 315 314 311 305 308 302 287 291 288 283 295 275 271 291 281 270 264 249 218 212 222 215 218 219 215 230 230 222 227 215 200 201 200 200 198 205 212 200 196 206 212 203 196 193 199 200 198 206 210 201 204 215 217 216 224 238 235 205 214 219 176 169 210 190 209 234 178 159 162 153 156 156 153 162 160 151 155 165 165 165 176 179 174
322 320 322 319 315 315 312 305 298 302 301 296 310 304 296 313 291 267 224 269 265 231 224 202 188 197 200 205 201 199 220 210 207 223 221 206 203 208 212 197 198 213 202 193 204 207 200 195 192 197 200 197 203 210 202 200 213 215 198 214 235 242 229 218 204 167 174 216 196 208 227 212 174 173 162 163 163 159 166 176 161 159 169 168 166 178 174 162
324 320 320 318 314 312 304 298 299 300 300 304 311 317 327 322 291 110 195 263 288 180 205 195 182 184 193 194 190 198 213 180 180 212 213 204 200 207 219 208 199 208 205 199 200 196 198 198 190 192 201 199 200 208 202 197 210 216 194 209 229 240 250 241 220 200 187 196 216 213 215 225 197 172 172 169 163 164 171 178 171 161 165 163 162 170 162 151
327 322 317 315 314 311 299 293 298 300 302 305 298 290 318 300 166 136 220 268 342 14 203 172 175 188 191 185 188 202 213 197 174 188 198 200 201 207 225 220 207 207 209 210 207 192 195 203 192 190 203 200 198 206 202 195 204 215 204 205 218 231 249 261 258 242 204 192 233 220 204 222 221 164 171 177 167 171 177 179 175 161 161 163 165 165 155 150
328 323 315 311 314 316 312 306 303 307 312 305 287 281 298 233 160 185 230 268 352 341 341 135 167 196 193 179 185 200 210 212 173 167 186 193 197 211 232 230 219 213 210 210 215 201 186 201 200 190 202 203 195 200 203 199 200 212 215 204 205 220 232 248 264 249 208 200 233 229 207 207 225 167 167 183 174 170 172 173 177 167 162 167 170 163 152 154
328 322 314 308 310 314 311 307 310 325 330 310 288 292 231 206 227 226 219 262 356 338 341 319 193 207 194 180 185 194 208 219 168 158 181 186 188 207 224 226 223 215 204 201 216 205 180 194 206 189 197 202 192 194 203 202 198 209 224 207 191 205 217 233 256 241 208 210 221 230 222 205 213 186 171 179 172 171 169 168 176 172 165 167 169 159 151 156
327 319 312 308 307 305 298 304 318 337 345 341 337 326 240 204 239 241 270 339 332 335 348 331 300 254 197 185 186 189 206 221 173 160 180 183 181 198 207 209 202 197 197 189 203 205 185 190 196 185 194 199 188 187 199 195 192 208 222 211 191 189 199 213 227 218 215 227 215 220 228 219 206 169 166 176 175 172 169 170 174 172 168 163 155 150 151 156
326 314 313 312 305 302 295 307 325 342 5 10 323 317 271 244 244 238 296 337 351 316 327 321 319 301 216 190 187 189 204 210 175 168 180 183 183 192 208 215 204 201 200 180 187 201 189 183 185 181 186 196 192 186 192 186 187 205 214 207 197 188 190 199 206 210 214 238 237 227 227 227 215 165 166 178 178 172 171 175 175 169 166 159 149 149 150 151
328 315 318 318 302 301 293 296 311 318 327 289 230 197 254 271 285 283 302 322 317 303 305 311 318 306 231 196 188 185 201 197 170 172 178 180 186 187 204 217 210 212 199 175 187 199 189 179 182 187 184 192 202 202 196 184 186 205 209 201 204 203 196 197 201 206 209 222 238 240 233 215 223 181 168 173 174 175 173 171 171 159 148 146 146 147 148 149
339 325 321 316 310 313 302 282 284 279 241 259 257 220 251 272 286 313 321 321 321 315 314 310 302 283 210 196 191 186 203 192 163 176 184 179 187 186 195 210 208 212 192 173 196 193 185 179 177 193 200 193 207 219 202 186 189 205 204 198 205 208 196 193 206 202 222 234 225 237 243 199 245 93 152 165 171 175 167 162 166 145 130 137 141 146 154 155
350 332 320 311 313 328 323 284 260 260 239 261 276 248 273 293 290 321 332 318 310 315 319 311 271 217 196 192 185 188 207 197 165 178 186 184 192 189 194 205 204 211 199 176 197 185 180 182 172 187 206 197 203 219 202 186 191 196 199 201 205 214 207 186 196 164 44 256 215 205 216 168 126 117 146 165 171 172 165 159 157 136 130 139 141 147 156 155
347 327 314 298 294 298 300 283 206 230 242 258 280 277 294 284 229 273 305 311 308 305 313 312 242 202 197 184 178 185 191 176 172 182 180 187 194 188 198 205 203 215 208 183 202 194 182 179 167 181 201 196 199 214 205 191 199 201 195 195 200 223 233 215 200 163 176 235 214 202 214 191 169 177 161 172 176 175 166 156 150 138 134 140 144 149 154 154
334 322 310 287 282 259 248 255 208 227 252 261 269 266 269 288 238 249 296 311 305 289 292 295 340 311 196 176 174 180 175 162 175 184 177 189 193 185 197 201 203 219 212 191 198 196 185 171 160 181 194 186 191 212 209 193 206 219 195 180 196 222 232 227 216 184 192 217 217 215 220 209 195 183 164 176 182 172 158 154 159 151 138 139 147 152 154 154
325 320 309 271 292 245 222 238 232 240 258 267 280 286 298 320 312 297 311 313 291 277 298 313 342 322 266 202 176 173 176 170 175 184 182 190 187 183 194 197 199 214 215 204 194 172 193 186 154 182 188 175 184 207 207 186 203 223 206 182 202 225 222 220 217 204 203 205 211 220 219 217 207 172 166 181 187 176 165 162 165 151 140 144 149 150 153 155
319 307 293 263 269 216 213 243 250 253 260 267 290 305 321 332 323 319 328 313 282 275 294 316 310 306 305 282 207 177 181 171 173 192 189 187 182 178 191 195 194 205 215 222 207 166 198 203 152 177 183 175 185 200 201 188 188 214 215 192 196 219 224 215 208 210 214 206 203 217 222 218 200 165 171 182 182 183 174 149 136 138 138 141 146 149 154 157
312 291 284 293 256 190 225 262 256 265 269 271 285 298 323 338 324 323 331 301 280 271 262 288 293 279 287 297 246 175 181 171 178 200 187 183 190 176 187 192 190 196 208 227 213 173 194 184 147 174 190 183 191 198 203 204 192 203 221 202 192 205 213 210 211 209 210 217 209 211 225 223 195 168 178 176 171 180 167 138 130 138 135 134 143 149 154 158
308 301 324 319 305 184 269 277 258 249 245 284 308 319 329 325 311 321 331 320 303 274 251 259 274 271 279 296 260 178 180 176 183 204 183 173 188 185 184 188 189 190 197 220 204 179 193 184 154 180 202 188 188 195 208 217 205 200 216 214 199 204 211 211 210 203 204 215 219 220 222 220 64 128 156 162 172 184 165 141 134 137 133 137 146 150 155 157
316 319 319 312 320 307 277 289 295 279 269 309 321 331 331 315 309 317 322 320 311 278 261 260 271 281 293 296 262 190 172 172 182 203 178 160 189 197 176 176 186 187 189 218 200 176 187 189 164 177 198 190 185 192 208 219 213 201 210 221 215 203 205 217 220 206 209 211 212 223 213 186 18 88 135 156 175 193 173 141 134 133 131 139 148 152 155 155
316 309 291 299 322 302 279 310 332 327 323 323 326 337 339 301 304 305 304 315 310 294 298 288 290 297 296 294 267 188 163 168 179 197 177 155 200 200 164 165 191 187 190 216 188 165 181 176 166 175 183 185 188 189 199 212 212 202 202 217 228 215 201 210 227 218 218 218 214 218 199 155 97 82 134 161 171 197 180 138 133 134 134 140 147 152 155 153
314 306 286 296 299 265 275 305 318 311 316 323 323 327 325 306 302 281 279 305 312 306 309 303 306 303 295 301 282 187 172 173 170 189 180 160 193 179 151 173 203 192 200 218 162 155 181 170 171 189 183 183 195 190 187 201 207 201 205 212 223 226 211 205 216 216 213 219 223 232 204 137 125 119 158 181 183 196 155 128 129 133 137 142 147 151 154 153
318 321 325 325 304 280 278 293 305 303 311 321 315 317 328 328 326 282 262 306 335 321 307 303 308 307 303 307 274 188 173 173 175 183 171 164 179 145 146 183 206 202 213 266 1 168 188 181 192 200 195 192 198 184 171 186 202 200 211 212 209 221 225 212 201 209 205 207 228 243 185 133 136 152 182 196 180 135 107 120 127 131 138 143 147 152 155 154
321 327 346 339 316 305 303 306 316 314 312 315 307 319 333 332 346 29 215 301 358 349 323 304 310 316 314 299 231 175 162 170 188 174 146 153 169 139 150 186 202 208 221 283 314 235 199 207 202 203 207 200 195 189 176 185 205 206 211 214 202 210 226 228 220 212 203 211 232 214 136 130 147 172 184 172 112 101 107 124 130 133 139 143 144 151 155 153
348 329 337 348 322 312 322 317 317 316 315 317 313 325 334 341 10 33 8 314 1 4 347 319 322 311 280 242 219 182 160 169 185 156 128 156 170 148 160 185 190 194 202 224 249 223 198 218 209 207 213 200 190 197 187 185 201 209 212 215 205 208 222 234 237 217 199 219 240 160 123 133 168 174 153 100 94 105 109 117 125 131 137 141 143 149 154 154
353 327 331 347 328 300 299 302 306 310 314 317 319 331 339 351 8 12 10 354 349 356 360 336 328 307 242 193 216 217 157 145 172 148 142 167 159 146 169 179 171 178 193 209 226 208 180 223 232 215 208 210 216 209 190 186 200 206 207 210 207 211 219 228 238 223 205 217 234 189 134 147 185 162 121 107 108 111 113 120 129 135 138 143 146 149 154 157
349 332 322 327 318 300 298 302 304 306 312 314 321 339 342 348 357 354 1 353 301 315 44 334 323 307 248 179 219 258 35 2 338 51 37 156 146 155 189 177 158 172 190 202 207 171 146 242 255 233 200 216 236 220 186 188 205 208 209 212 212 216 218 218 227 233 222 220 227 209 166 175 187 136 118 122 119 115 122 130 135 140 146 149 149 151 156 159
339 328 316 314 310 305 309 311 307 303 309 321 332 341 337 339 346 342 339 310 290 343 83 3 347 332 287 168 117 22 6 334 318 332 330 317 162 175 198 181 164 172 182 185 172 151 166 253 262 240 199 206 231 223 198 195 208 213 212 210 210 216 220 212 212 222 228 226 220 213 208 199 154 119 119 131 128 126 135 142 143 148 154 157 157 157 159 160
338 333 326 317 303 304 311 311 306 303 316 336 337 336 331 333 337 336 334 321 330 4 24 8 14 6 340 47 111 351 338 313 317 320 310 304 304 248 203 186 173 172 175 172 166 169 190 243 251 210 192 208 218 223 217 207 218 217 215 214 209 208 214 217 216 214 213 222 225 219 215 165 127 123 129 142 145 144 149 153 155 158 159 161 163 163 163 164
Height
1502 1501 1500 1499 1498 1497 1496 1496 1495 1495 1494 1494 1493 1493 1492 1492 1491 1491 1490 1489 1488 1487 1486 1484 1483 1482 1481 1479 1478 1477 1475 1473 1471 1471 1470 1468 1470 1472 1472 1472 1473 1475 1477 1479 1480 1482 1483 1485 1486 1488 1489 1489 1488 1487 1487 1486 1485 1485 1486 1487 1484 1479 1475 1468 1465 1461 1456 1452 1450 1451 1452 1455 1457 1456 1457 1461 1465 1465 1466 1465 1464 1463 1463 1467 1471 1475 1480 1484
1501 1500 1499 1498 1497 1496 1495 1495 1494 1493 1493 1492 1492 1491 1491 1490 1490 1489 1489 1488 1487 1486 1485 1483 1482 1481 1480 1479 1478 1476 1474 1471 1469 1466 1464 1466 1468 1468 1469 1470 1471 1473 1475 1477 1478 1480 1482 1483 1484 1486 1486 1486 1485 1484 1484 1482 1481 1480 1481 1483 1480 1473 1468 1462 1459 1455 1452 1451 1448 1449 1453 1456 1458 1456 1456 1460 1462 1463 1466 1464 1463 1465 1467 1470 1472 1476 1480 1483
1500 1499 1498 1497 1496 1495 1494 1493 1493 1492 1491 1491 1490 1489 1489 1489 1489 1488 1488 1487 1486 1485 1484 1482 1482 1480 1479 1478 1477 1476 1473 1470 1467 1462 1460 1463 1465 1465 1467 1468 1469 1472 1474 1475 1477 1480 1481 1482 1483 1484 1484 1482 1481 1481 1480 1478 1477 1476 1477 1479 1474 1468 1463 1458 1456 1453 1449 1447 1446 1450 1456 1459 1459 1458 1457 1459 1461 1461 1463 1462 1462 1467 1470 1471 1474 1477 1480 1483
1499 1498 1497 1496 1495 1494 1493 1492 1491 1491 1490 1489 1488 1488 1487 1487 1487 1486 1486 1485 1485 1484 1482 1482 1481 1480 1479 1478 1477 1475 1474 1471 1463 1458 1458 1460 1462 1463 1465 1465 1468 1470 1472 1474 1475 1477 1479 1481 1481 1481 1481 1479 1477 1476 1475 1474 1473 1472 1472 1473 1467 1463 1463 1459 1454 1451 1448 1448 1450 1452 1457 1460 1460 1460 1459 1460 1463 1462 1459 1459 1460 1463 1467 1470 1474 1477 1479 1482
1498 1496 1495 1494 1493 1492 1492 1491 1490 1489 1488 1488 1487 1487 1486 1486 1485 1485 1485 1484 1483 1483 1482 1481 1479 1479 1478 1477 1477 1475 1476 1470 1459 1456 1458 1459 1460 1461 1462 1463 1466 1468 1470 1472 1474 1475 1476 1478 1478 1477 1477 1475 1474 1472 1470 1469 1469 1469 1468 1466 1463 1461 1460 1456 1452 1450 1449 1451 1454 1455 1457 1460 1459 1458 1459 1460 1464 1461 1455 1456 1457 1459 1463 1467 1471 1475 1478 1481
1497 1495 1494 1493 1492 1491 1490 1489 1488 1488 1487 1486 1486 1485 1484 1484 1483 1483 1483 1482 1482 1481 1481 1479 1478 1478 1476 1476 1476 1476 1477 1467 1457 1458 1458 1459 1460 1460 1461 1462 1463 1466 1468 1470 1472 1474 1475 1476 1475 1473 1472 1471 1470 1468 1466 1466 1466 1467 1465 1462 1462 1460 1456 1453 1450 1450 1452 1453 1455 1457 1458 1459 1459 1457 1458 1460 1461 1458 1455 1455 1455 1456 1461 1464 1469 1473 1476 1479
1496 1494 1493 1491 1490 1489 1488 1487 1487 1486 1485 1485 1484 1483 1483 1482 1482 1481 1481 1481 1480 1480 1479 1478 1478 1477 1476 1475 1474 1474 1474 1463 1456 1460 1459 1459 1460 1459 1460 1460 1462 1464 1466 1469 1471 1472 1473 1473 1472 1470 1468 1468 1467 1465 1463 1463 1462 1464 1464 1460 1460 1459 1456 1453 1451 1451 1455 1457 1458 1459 1459 1459 1459 1458 1458 1459 1459 1458 1456 1456 1457 1458 1459 1462 1466 1471 1475 1478
1495 1494 1492 1491 1489 1488 1487 1486 1485 1484 1484 1483 1482 1482 1481 1480 1480 1480 1479 1479 1479 1478 1478 1477 1477 1476 1475 1474 1473 1472 1468 1461 1458 1459 1458 1459 1459 1459 1460 1460 1462 1463 1465 1467 1468 1471 1472 1471 1470 1468 1466 1465 1465 1463 1461 1461 1459 1459 1461 1458 1457 1457 1455 1454 1453 1453 1456 1459 1461 1461 1460 1458 1458 1459 1459 1457 1457 1458 1456 1456 1459 1462 1463 1462 1464 1468 1473 1476
1494 1493 1492 1490 1489 1487 1486 1484 1483 1483 1482 1481 1481 1480 1479 1479 1478 1478 1478 1477 1477 1477 1477 1476 1475 1475 1475 1473 1474 1470 1462 1460 1460 1458 1458 1459 1459 1460 1460 1461 1462 1463 1464 1465 1467 1469 1469 1468 1468 1467 1465 1463 1463 1461 1459 1459 1457 1455 1457 1457 1456 1454 1452 1453 1452 1452 1455 1459 1461 1461 1460 1458 1458 1460 1459 1456 1455 1457 1456 1456 1460 1466 1470 1468 1465 1467 1471 1475
1493 1492 1490 1489 1488 1486 1485 1483 1482 1481 1480 1479 1479 1478 1477 1477 1476 1476 1476 1475 1475 1475 1475 1475 1474 1474 1474 1473 1473 1466 1459 1460 1461 1459 1459 1459 1459 1460 1459 1461 1462 1463 1464 1464 1466 1466 1467 1467 1467 1467 1466 1462 1460 1459 1456 1456 1453 1451 1454 1455 1454 1453 1451 1451 1450 1450 1453 1457 1459 1460 1459 1457 1458 1460 1458 1455 1454 1456 1456 1456 1459 1466 1471 1471 1470 1471 1474 1477
1492 1490 1489 1488 1486 1485 1484 1482 1481 1480 1479 1478 1477 1476 1475 1475 1475 1474 1474 1474 1473 1474 1473 1473 1473 1473 1472 1472 1469 1461 1457 1459 1460 1459 1460 1459 1459 1459 1459 1460 1460 1461 1462 1463 1463 1464 1465 1466 1466 1467 1465 1461 1459 1457 1454 1453 1451 1449 1451 1451 1451 1452 1451 1449 1448 1449 1451 1455 1457 1457 1457 1455 1455 1456 1455 1452 1453 1454 1455 1455 1459 1464 1469 1473 1474 1476 1477 1480
1490 1489 1487 1486 1485 1484 1483 1481 1480 1479 1477 1476 1475 1474 1473 1473 1473 1472 1472 1472 1472 1472 1472 1472 1472 1471 1471 1468 1462 1457 1455 1454 1455 1456 1457 1457 1458 1458 1458 1459 1459 1459 1460 1461 1461 1463 1464 1465 1466 1464 1461 1461 1459 1456 1453 1451 1451 1449 1449 1451 1450 1450 1451 1449 1447 1449 1452 1454 1455 1456 1459 1457 1454 1452 1450 1450 1451 1450 1451 1455 1461 1466 1470 1474 1475 1477 1481 1485
1489 1488 1486 1485 1483 1482 1481 1480 1479 1478 1476 1475 1474 1472 1472 1471 1471 1471 1470 1470 1470 1470 1470 1470 1470 1470 1468 1461 1455 1456 1454 1450 1451 1452 1453 1455 1456 1455 1456 1457 1457 1458 1458 1459 1460 1461 1463 1463 1463 1462 1460 1458 1456 1454 1451 1449 1450 1449 1449 1450 1452 1453 1451 1446 1445 1448 1451 1453 1452 1456 1463 1459 1452 1449 1447 1448 1448 1448 1452 1459 1466 1471 1474 1476 1477 1480 1483 1487
1488 1487 1485 1483 1482 1480 1479 1478 1477 1476 1475 1474 1472 1471 1470 1469 1469 1468 1468 1468 1468 1468 1468 1469 1468 1468 1464 1455 1450 1453 1451 1449 1449 1449 1450 1452 1453 1454 1454 1455 1456 1456 1457 1457 1458 1459 1461 1462 1463 1461 1459 1456 1453 1453 1451 1449 1449 1449 1449 1449 1451 1455 1451 1443 1442 1446 1449 1450 1449 1454 1461 1457 1448 1445 1445 1445 1446 1450 1459 1466 1470 1475 1479 1481 1482 1484 1486 1490
1487 1485 1484 1482 1480 1479 1477 1476 1475 1474 1473 1472 1470 1469 1468 1468 1467 1466 1466 1466 1466 1467 1466 1467 1466 1465 1461 1452 1448 1447 1446 1447 1445 1444 1447 1450 1451 1451 1452 1453 1454 1455 1456 1456 1456 1457 1459 1460 1461 1459 1457 1456 1454 1452 1451 1451 1449 1448 1452 1453 1450 1452 1449 1440 1437 1441 1447 1447 1446 1452 1458 1454 1448 1446 1445 1445 1445 1452 1462 1468 1470 1473 1479 1482 1484 1486 1488 1491
1486 1484 1482 1481 1479 1477 1476 1474 1473 1472 1471 1470 1468 1467 1466 1465 1465 1464 1464 1463 1465 1465 1465 1465 1463 1464 1460 1449 1445 1444 1443 1442 1440 1440 1443 1446 1448 1449 1451 1452 1452 1453 1454 1455 1456 1456 1457 1457 1457 1456 1456 1454 1452 1451 1451 1451 1450 1446 1449 1453 1449 1449 1449 1441 1433 1434 1440 1444 1444 1449 1453 1451 1449 1448 1447 1447 1448 1453 1461 1466 1468 1471 1475 1479 1482 1484 1486 1490
1484 1483 1481 1479 1477 1476 1474 1473 1471 1470 1469 1467 1466 1465 1464 1463 1462 1462 1461 1461 1462 1462 1463 1462 1461 1463 1455 1444 1442 1441 1439 1438 1437 1439 1440 1442 1445 1447 1449 1450 1450 1452 1452 1454 1455 1455 1455 1454 1454 1454 1452 1450 1449 1451 1453 1452 1450 1445 1445 1448 1445 1443 1446 1442 1433 1428 1433 1441 1442 1445 1448 1448 1449 1449 1448 1449 1450 1455 1462 1467 1469 1471 1475 1478 1480 1483 1484 1488
1483 1481 1479 1477 1476 1474 1472 1471 1469 1468 1466 1465 1464 1462 1461 1460 1460 1459 1458 1459 1460 1461 1461 1458 1461 1462 1447 1437 1439 1436 1434 1436 1436 1438 1438 1439 1442 1445 1447 1447 1448 1449 1450 1451 1452 1452 1453 1450 1450 1450 1448 1448 1446 1446 1450 1449 1446 1444 1444 1446 1444 1439 1439 1439 1433 1424 1428 1439 1442 1442 1446 1446 1448 1449 1449 1451 1452 1456 1462 1467 1470 1472 1475 1477 1480 1483 1486 1489
1481 1479 1477 1476 1474 1472 1470 1469 1467 1466 1464 1463 1462 1461 1459 1457 1457 1456 1455 1456 1457 1457 1456 1453 1454 1453 1438 1429 1433 1433 1433 1435 1435 1436 1437 1437 1440 1443 1444 1445 1445 1446 1446 1447 1447 1448 1448 1446 1446 1446 1444 1444 1442 1439 1442 1441 1437 1437 1437 1441 1443 1439 1434 1432 1427 1419 1424 1437 1441 1440 1442 1443 1446 1449 1450 1452 1453 1457 1461 1465 1468 1471 1474 1477 1480 1483 1487 1491
1479 1477 1475 1474 1472 1470 1468 1467 1465 1464 1463 1462 1461 1461 1458 1455 1453 1452 1452 1453 1452 1450 1448 1446 1445 1444 1435 1430 1432 1434 1433 1434 1435 1435 1435 1436 1438 1440 1442 1442 1442 1442 1441 1440 1442 1443 1444 1444 1442 1439 1438 1439 1439 1437 1437 1436 1432 1430 1431 1434 1436 1435 1431 1426 1423 1417 1420 1434 1438 1436 1438 1439 1444 1449 1449 1452 1454 1457 1461 1464 1467 1470 1472 1475 1478 1481 1485 1489
1478 1476 1474 1472 1470 1469 1467 1465 1463 1462 1461 1460 1460 1460 1457 1454 1451 1449 1449 1448 1447 1446 1445 1443 1442 1441 1437 1433 1431 1433 1432 1430 1432 1433 1433 1434 1436 1437 1438 1437 1437 1437 1436 1435 1438 1440 1441 1440 1435 1433 1435 1436 1436 1435 1435 1436 1432 1428 1427 1429 1430 1431 1427 1420 1419 1415 1416 1429 1434 1433 1436 1435 1440 1447 1447 1450 1454 1456 1459 1462 1466 1469 1472 1475 1476 1479 1481 1483
1476 1474 1472 1471 1469 1467 1465 1463 1461 1460 1460 1459 1459 1458 1455 1454 1453 1451 1450 1446 1442 1442 1441 1440 1440 1438 1437 1434 1431 1432 1432 1428 1428 1430 1431 1432 1433 1433 1432 1432 1431 1431 1432 1432 1434 1438 1438 1433 1430 1431 1432 1433 1434 1434 1435 1436 1433 1429 1426 1426 1425 1425 1425 1419 1415 1411 1412 1426 1432 1431 1435 1434 1437 1445 1448 1450 1454 1456 1458 1459 1463 1468 1471 1474 1476 1478 1479 1479
1475 1472 1471 1469 1467 1465 1463 1461 1460 1458 1457 1456 1456 1455 1453 1453 1453 1452 1451 1446 1438 1436 1436 1436 1435 1435 1434 1432 1431 1433 1431 1427 1426 1425 1427 1429 1429 1429 1429 1428 1427 1427 1428 1427 1426 1432 1434 1429 1427 1428 1430 1431 1431 1432 1435 1435 1433 1431 1427 1425 1421 1418 1423 1422 1414 1409 1410 1422 1429 1428 1434 1441 1443 1448 1450 1452 1455 1457 1460 1461 1462 1467 1470 1473 1474 1476 1479 1479
1473 1471 1469 1467 1465 1464 1461 1459 1457 1455 1455 1454 1454 1453 1452 1453 1452 1450 1448 1445 1437 1431 1430 1430 1430 1430 1429 1429 1431 1431 1429 1427 1426 1423 1424 1425 1425 1427 1426 1424 1425 1424 1423 1421 1421 1425 1426 1424 1424 1425 1427 1428 1429 1429 1431 1433 1433 1430 1425 1423 1419 1414 1417 1417 1411 1409 1413 1422 1426 1425 1438 1451 1452 1454 1457 1454 1456 1459 1460 1461 1464 1468 1473 1475 1476 1477 1480 1482
1472 1470 1467 1465 1464 1461 1460 1457 1454 1454 1453 1453 1453 1451 1451 1451 1449 1449 1449 1444 1434 1424 1422 1424 1424 1423 1424 1427 1427 1427 1427 1425 1423 1421 1421 1422 1423 1423 1422 1422 1422 1420 1418 1419 1419 1420 1420 1419 1420 1422 1422 1424 1426 1425 1426 1430 1432 1430 1424 1418 1415 1411 1412 1413 1409 1411 1424 1433 1427 1426 1444 1455 1450 1452 1458 1456 1456 1460 1460 1460 1463 1468 1473 1476 1478 1480 1482 1485
1470 1468 1465 1464 1462 1460 1459 1455 1453 1454 1452 1453 1452 1449 1449 1448 1447 1449 1449 1447 1435 1420 1414 1415 1416 1415 1416 1419 1420 1425 1427 1419 1417 1420 1419 1420 1421 1420 1420 1418 1417 1415 1414 1415 1417 1415 1413 1413 1415 1418 1419 1421 1423 1423 1422 1425 1430 1430 1421 1415 1413 1410 1410 1412 1410 1416 1433 1437 1425 1425 1439 1450 1453 1453 1453 1454 1456 1458 1460 1460 1461 1467 1472 1475 1478 1482 1484 1486
1468 1466 1464 1462 1460 1459 1457 1454 1453 1452 1451 1452 1450 1448 1448 1447 1448 1448 1449 1448 1429 1408 1404 1407 1409 1407 1406 1410 1415 1421 1418 1410 1414 1418 1416 1419 1419 1418 1418 1414 1413 1413 1408 1411 1417 1412 1406 1409 1412 1414 1416 1418 1421 1421 1417 1419 1426 1425 1416 1415 1416 1413 1410 1408 1409 1418 1427 1427 1424 1424 1428 1444 1459 1456 1449 1451 1454 1456 1459 1461 1461 1464 1471 1475 1479 1482 1484 1486
1467 1464 1462 1460 1459 1458 1456 1453 1451 1450 1450 1450 1448 1449 1447 1447 1449 1446 1449 1446 1416 1392 1395 1399 1401 1402 1402 1406 1410 1411 1408 1404 1409 1412 1412 1417 1417 1416 1415 1409 1410 1410 1403 1407 1414 1408 1402 1405 1408 1411 1414 1415 1416 1416 1413 1415 1422 1418 1412 1415 1416 1414 1411 1405 1407 1414 1415 1425 1434 1426 1423 1439 1450 1447 1447 1450 1454 1457 1458 1458 1460 1462 1468 1474 1479 1482 1484 1486
1465 1462 1460 1459 1457 1455 1454 1452 1451 1450 1449 1448 1448 1448 1446 1447 1448 1445 1450 1441 1409 1392 1395 1395 1398 1400 1399 1402 1406 1407 1405 1402 1403 1406 1410 1414 1414 1413 1413 1409 1407 1407 1402 1402 1405 1402 1400 1401 1402 1407 1411 1411 1411 1411 1409 1413 1418 1414 1411 1413 1413 1413 1412 1410 1413 1411 1411 1430 1440 1424 1420 1435 1440 1439 1447 1452 1453 1456 1455 1454 1457 1460 1467 1473 1477 1482 1483 1485
1463 1460 1458 1457 1455 1453 1452 1451 1451 1449 1447 1447 1448 1447 1447 1447 1445 1445 1450 1438 1413 1404 1402 1398 1398 1398 1395 1398 1402 1405 1404 1399 1397 1403 1409 1410 1412 1413 1412 1409 1405 1404 1401 1399 1400 1396 1396 1399 1399 1402 1406 1405 1407 1409 1408 1411 1414 1412 1410 1411 1414 1416 1414 1416 1415 1409 1418 1437 1435 1419 1414 1427 1438 1437 1438 1441 1442 1445 1448 1452 1455 1457 1464 1471 1476 1481 1482 1483
1460 1458 1457 1455 1454 1453 1451 1451 1450 1449 1447 1447 1447 1447 1448 1446 1444 1445 1441 1428 1419 1416 1409 1405 1402 1396 1395 1397 1399 1402 1402 1397 1394 1401 1407 1406 1410 1413 1411 1409 1405 1403 1402 1401 1399 1393 1393 1399 1397 1397 1402 1401 1403 1408 1407 1408 1410 1412 1411 1411 1419 1424 1422 1425 1421 1416 1432 1441 1428 1415 1410 1419 1436 1437 1429 1429 1431 1434 1440 1447 1451 1453 1458 1466 1474 1479 1481 1482
1459 1457 1455 1454 1453 1452 1451 1451 1450 1449 1448 1447 1447 1448 1447 1445 1446 1443 1430 1421 1425 1424 1417 1414 1409 1400 1395 1395 1397 1400 1400 1397 1394 1398 1403 1403 1406 1408 1407 1404 1401 1403 1405 1402 1399 1394 1392 1396 1395 1395 1398 1397 1402 1408 1408 1408 1409 1413 1413 1413 1425 1435 1438 1442 1438 1431 1436 1433 1418 1412 1414 1417 1424 1426 1425 1426 1427 1430 1435 1439 1444 1448 1453 1461 1470 1476 1479 1482
1457 1455 1454 1453 1452 1451 1451 1450 1450 1449 1448 1448 1448 1447 1447 1448 1444 1436 1429 1426 1430 1428 1422 1419 1415 1407 1400 1397 1396 1397 1398 1396 1393 1396 1400 1401 1404 1406 1405 1400 1394 1398 1400 1397 1400 1401 1397 1394 1392 1396 1398 1396 1399 1406 1410 1410 1410 1413 1413 1414 1425 1436 1447 1454 1447 1440 1440 1432 1416 1408 1413 1418 1414 1414 1418 1420 1421 1425 1429 1435 1440 1444 1452 1459 1466 1473 1477 1480
1456 1454 1453 1452 1451 1450 1450 1450 1449 1449 1448 1449 1448 1448 1450 1448 1438 1431 1431 1430 1429 1427 1423 1420 1417 1410 1401 1397 1394 1391 1394 1394 1390 1394 1398 1399 1403 1405 1404 1399 1393 1391 1389 1392 1399 1400 1402 1401 1396 1398 1401 1400 1399 1401 1404 1406 1408 1411 1407 1410 1420 1425 1439 1449 1444 1443 1445 1435 1421 1413 1414 1417 1415 1412 1411 1412 1416 1420 1425 1433 1437 1443 1451 1459 1465 1471 1476 1478
1455 1454 1453 1451 1451 1450 1449 1449 1449 1449 1449 1449 1448 1447 1447 1442 1435 1432 1432 1430 1429 1426 1422 1418 1415 1409 1401 1396 1391 1387 1389 1390 1389 1393 1396 1397 1400 1401 1400 1396 1392 1386 1384 1394 1396 1390 1399 1405 1398 1400 1402 1401 1403 1399 1395 1402 1411 1410 1402 1409 1419 1415 1420 1432 1433 1433 1438 1437 1429 1420 1415 1412 1410 1408 1405 1408 1414 1416 1422 1430 1435 1443 1451 1458 1464 1468 1472 1475
1455 1455 1453 1451 1450 1449 1449 1448 1448 1448 1448 1448 1447 1443 1439 1436 1435 1434 1432 1431 1431 1428 1424 1415 1408 1407 1403 1395 1389 1385 1384 1386 1389 1394 1396 1396 1397 1396 1396 1392 1388 1383 1381 1389 1390 1386 1398 1403 1395 1400 1403 1399 1403 1399 1393 1401 1409 1408 1406 1410 1411 1405 1407 1423 1431 1428 1434 1443 1433 1419 1418 1416 1415 1415 1409 1410 1416 1416 1421 1429 1435 1444 1451 1456 1462 1465 1469 1473
1456 1455 1453 1451 1450 1449 1449 1448 1448 1448 1447 1447 1447 1439 1433 1432 1432 1432 1430 1430 1430 1429 1429 1420 1407 1404 1402 1394 1388 1385 1383 1386 1390 1393 1396 1396 1394 1394 1393 1389 1386 1382 1377 1382 1386 1383 1393 1400 1393 1398 1403 1398 1399 1399 1393 1395 1400 1405 1409 1408 1406 1407 1406 1412 1428 1435 1442 1448 1432 1417 1421 1422 1425 1430 1419 1413 1419 1419 1421 1427 1434 1443 1450 1455 1459 1463 1467 1472
1456 1455 1453 1451 1450 1450 1449 1448 1448 1448 1447 1447 1444 1436 1432 1430 1428 1429 1428 1429 1430 1429 1428 1424 1413 1406 1401 1393 1386 1383 1384 1389 1392 1392 1393 1394 1392 1390 1391 1388 1385 1382 1376 1379 1384 1381 1385 1398 1398 1395 1399 1398 1397 1399 1398 1394 1396 1399 1401 1402 1409 1420 1420 1415 1424 1437 1445 1449 1438 1424 1421 1417 1419 1426 1422 1418 1421 1421 1422 1427 1432 1439 1448 1454 1459 1463 1467 1471
1455 1454 1452 1451 1450 1450 1449 1448 1448 1448 1448 1446 1440 1432 1428 1426 1424 1426 1426 1427 1429 1428 1425 1423 1418 1412 1405 1394 1385 1384 1386 1388 1391 1390 1390 1392 1390 1387 1387 1387 1385 1383 1378 1376 1380 1380 1382 1395 1404 1397 1393 1397 1398 1400 1403 1400 1399 1398 1398 1402 1407 1413 1417 1415 1416 1424 1434 1444 1443 1434 1427 1417 1409 1412 1417 1419 1419 1419 1423 1427 1430 1436 1444 1452 1457 1462 1467 1471
1455 1453 1451 1449 1449 1449 1448 1448 1448 1447 1447 1444 1438 1430 1424 1422 1422 1423 1425 1426 1427 1427 1424 1422 1420 1416 1410 1399 1387 1383 1384 1386 1389 1388 1386 1387 1388 1385 1384 1384 1384 1382 1381 1377 1377 1381 1383 1391 1404 1400 1393 1399 1402 1398 1399 1400 1401 1403 1401 1402 1407 1408 1408 1410 1412 1411 1418 1433 1440 1440 1436 1418 1401 1403 1410 1413 1415 1417 1421 1425 1431 1437 1443 1450 1455 1461 1466 1471
1455 1452 1449 1448 1448 1448 1448 1448 1447 1445 1444 1441 1435 1427 1422 1423 1423 1421 1423 1424 1425 1426 1423 1422 1422 1417 1412 1404 1391 1383 1384 1386 1387 1386 1382 1383 1386 1386 1383 1381 1382 1382 1383 1382 1379 1383 1386 1389 1402 1406 1399 1401 1402 1395 1395 1396 1397 1401 1400 1397 1404 1410 1409 1417 1422 1409 1406 1418 1426 1434 1438 1418 1398 1399 1405 1408 1412 1414 1417 1425 1433 1437 1443 1450 1456 1460 1466 1470
1454 1450 1447 1448 1448 1447 1448 1446 1443 1442 1441 1438 1431 1426 1424 1424 1423 1421 1421 1422 1422 1424 1423 1421 1420 1415 1410 1404 1392 1385 1386 1387 1387 1384 1381 1381 1383 1382 1380 1379 1381 1382 1384 1385 1380 1380 1384 1388 1400 1408 1402 1398 1398 1396 1396 1396 1393 1397 1399 1396 1399 1404 1404 1415 1424 1413 1407 1413 1413 1420 1431 1420 1401 1398 1402 1407 1411 1412 1416 1424 1432 1438 1443 1450 1456 1462 1466 1470
1454 1450 1448 1448 1447 1447 1448 1443 1438 1436 1436 1433 1428 1427 1427 1425 1423 1421 1421 1422 1422 1422 1421 1419 1416 1412 1407 1403 1394 1385 1383 1386 1387 1385 1381 1382 1381 1377 1376 1378 1380 1381 1383 1385 1381 1380 1384 1389 1399 1408 1401 1393 1395 1396 1396 1395 1394 1398 1400 1396 1395 1398 1398 1404 1408 1406 1411 1415 1414 1423 1433 1425 1409 1401 1402 1407 1410 1412 1416 1423 1431 1438 1444 1450 1456 1462 1466 1469
1454 1451 1449 1447 1446 1447 1446 1441 1436 1435 1433 1430 1428 1428 1428 1427 1425 1424 1422 1422 1421 1420 1419 1416 1413 1411 1407 1402 1394 1385 1383 1388 1389 1384 1380 1382 1381 1376 1375 1380 1382 1381 1383 1383 1380 1381 1388 1392 1399 1411 1411 1406 1405 1405 1402 1398 1395 1396 1399 1397 1394 1392 1394 1400 1400 1402 1412 1415 1413 1424 1433 1427 1414 1407 1407 1410 1412 1414 1417 1423 1430 1437 1445 1451 1456 1461 1466 1469
1455 1451 1448 1447 1446 1446 1444 1440 1438 1438 1434 1431 1430 1428 1427 1426 1424 1424 1423 1421 1419 1418 1417 1413 1410 1408 1404 1399 1394 1387 1384 1388 1389 1384 1380 1381 1379 1375 1378 1384 1383 1381 1382 1381 1379 1382 1388 1391 1397 1407 1414 1417 1415 1410 1404 1399 1395 1395 1397 1397 1395 1392 1393 1399 1403 1411 1419 1417 1412 1417 1423 1421 1416 1413 1414 1414 1414 1416 1418 1424 1430 1436 1444 1451 1454 1460 1466 1469
1457 1454 1450 1447 1445 1444 1442 1440 1439 1437 1434 1434 1433 1427 1425 1424 1422 1422 1421 1420 1418 1416 1414 1411 1409 1406 1403 1400 1396 1389 1385 1385 1386 1383 1381 1382 1380 1378 1382 1387 1384 1382 1382 1382 1382 1383 1387 1390 1393 1396 1400 1403 1402 1396 1393 1396 1398 1400 1400 1397 1396 1396 1393 1396 1406 1414 1417 1418 1418 1413 1412 1420 1421 1419 1419 1417 1418 1423 1426 1428 1433 1439 1446 1452 1455 1461 1465 1468
1459 1458 1455 1453 1448 1443 1441 1439 1438 1437 1435 1434 1432 1426 1424 1423 1420 1421 1421 1420 1418 1416 1413 1410 1408 1408 1406 1401 1395 1389 1386 1386 1384 1381 1381 1384 1382 1382 1386 1388 1386 1386 1384 1385 1386 1387 1392 1395 1392 1390 1390 1388 1387 1387 1388 1395 1399 1400 1400 1396 1395 1398 1397 1399 1407 1407 1406 1417 1423 1412 1411 1424 1426 1419 1420 1421 1424 1431 1434 1435 1438 1443 1449 1454 1457 1462 1466 1469
1461 1460 1458 1458 1454 1448 1444 1441 1439 1437 1434 1432 1429 1425 1424 1421 1419 1421 1422 1420 1419 1419 1417 1413 1410 1409 1406 1402 1398 1393 1388 1387 1386 1384 1385 1386 1385 1386 1390 1389 1388 1388 1387 1389 1389 1387 1393 1398 1391 1388 1387 1383 1382 1385 1386 1392 1397 1397 1397 1396 1396 1400 1401 1403 1404 1400 1402 1416 1420 1413 1417 1426 1423 1418 1423 1426 1429 1434 1438 1441 1444 1448 1451 1455 1458 1463 1466 1470
1464 1462 1459 1459 1457 1453 1449 1445 1441 1438 1435 1432 1429 1426 1424 1422 1421 1421 1420 1421 1422 1421 1421 1420 1414 1410 1405 1401 1400 1396 1392 1393 1392 1388 1387 1386 1386 1389 1392 1391 1390 1390 1390 1392 1390 1386 1392 1398 1393 1388 1389 1386 1384 1383 1382 1388 1393 1394 1395 1396 1398 1401 1401 1401 1401 1399 1402 1409 1410 1411 1420 1423 1418 1418 1425 1430 1432 1434 1439 1444 1447 1450 1453 1456 1460 1463 1466 1470
1467 1465 1462 1460 1457 1453 1448 1444 1441 1438 1435 1432 1430 1427 1424 1423 1423 1421 1419 1422 1424 1423 1424 1424 1417 1411 1406 1402 1402 1401 1400 1401 1400 1395 1392 1390 1389 1392 1393 1390 1389 1391 1392 1393 1391 1390 1396 1401 1394 1388 1392 1393 1388 1383 1383 1389 1393 1395 1396 1395 1396 1399 1400 1400 1402 1401 1403 1406 1406 1409 1419 1420 1415 1417 1425 1430 1432 1435 1440 1444 1447 1451 1454 1457 1461 1464 1467 1470
1469 1468 1465 1463 1458 1452 1448 1444 1440 1438 1435 1432 1430 1428 1426 1424 1422 1421 1418 1418 1419 1420 1422 1421 1416 1413 1409 1405 1406 1408 1407 1405 1403 1400 1398 1396 1393 1393 1392 1389 1388 1391 1392 1393 1395 1396 1402 1406 1397 1390 1398 1400 1392 1388 1388 1389 1393 1396 1397 1397 1398 1401 1401 1401 1403 1403 1405 1407 1409 1413 1418 1417 1413 1418 1427 1430 1431 1435 1440 1443 1447 1451 1453 1456 1460 1464 1467 1470
1468 1467 1465 1464 1459 1452 1448 1443 1439 1437 1435 1432 1430 1429 1427 1424 1421 1421 1420 1416 1414 1416 1416 1415 1415 1414 1413 1411 1410 1411 1410 1406 1403 1401 1399 1398 1395 1394 1392 1389 1389 1392 1392 1394 1398 1399 1404 1407 1398 1394 1404 1405 1396 1393 1392 1395 1402 1405 1398 1395 1396 1399 1401 1402 1401 1402 1403 1406 1412 1415 1414 1412 1412 1419 1427 1430 1431 1435 1438 1442 1445 1449 1452 1455 1458 1461 1465 1468